Theta_e
299 300 300 301 302 302 302 303 304 306 308 311 316 321 322 321 322 321 321 322 321 320 320 319 319 319 318 318 317 316 314 314 309 311 311 312 308 310 306 307 307 306 306
299 299 300 301 301 301 301 302 303 304 306 307 309 310 311 313 320 321 320 321 320 319 320 319 318 319 318 319 318 316 315 315 312 309 310 305 308 306 308 306 304 303 304
298 299 299 300 300 301 301 302 302 301 301 302 303 303 304 305 306 308 313 319 320 321 320 319 319 319 317 318 318 316 316 315 314 312 311 304 300 297 295 296 297 298 297
297 297 298 299 300 300 301 301 301 302 301 302 302 303 303 303 304 305 306 309 314 319 320 320 320 319 318 318 317 316 316 315 313 312 310 297 298 290 291 297 292 287 290
295 295 295 297 298 298 298 298 299 299 299 300 300 301 302 302 303 303 304 305 307 310 316 318 319 316 308 313 317 317 316 314 312 310 308 292 291 287 296 292 301 292 289
292 292 294 293 293 293 294 295 295 295 296 297 297 298 298 300 300 299 299 303 304 305 309 315 318 306 304 302 304 308 314 315 311 309 308 303 303 303 293 296 297 288 291
290 291 291 290 290 290 291 291 291 293 295 295 296 297 297 298 298 298 297 301 303 304 307 311 314 316 308 315 306 305 306 307 311 313 307 306 306 303 299 292 293 292 292
287 288 287 287 287 287 289 290 291 292 293 294 295 296 296 297 297 297 296 301 303 306 308 310 313 315 315 312 312 310 308 310 310 312 313 311 310 302 301 302 296 288 288
284 284 285 285 285 287 287 288 290 291 291 292 293 293 293 295 295 296 297 299 301 304 308 311 313 314 310 302 308 308 307 307 308 306 308 307 302 300 297 293 290 290 286
283 284 284 284 285 286 287 288 289 289 289 289 289 291 290 291 293 294 295 297 297 300 303 305 298 304 305 302 307 309 305 305 296 291 294 295 296 295 295 299 293 290 284
283 283 283 284 285 286 287 288 288 288 288 288 288 290 290 291 292 293 293 292 293 295 299 302 304 301 299 301 301 307 306 293 293 289 287 287 288 288 288 287 288 291 287
281 281 281 283 285 286 286 287 287 287 286 287 288 288 290 291 290 290 291 292 294 292 294 299 302 297 298 299 299 303 295 292 289 287 287 286 285 284 285 285 285 284 285
279 278 279 281 285 286 286 286 286 286 286 286 287 287 288 289 288 289 289 290 291 291 293 294 292 293 294 296 296 294 288 288 288 287 286 285 285 283 282 281 282 282 281
274 276 279 281 283 285 286 286 285 285 285 286 286 286 287 287 287 287 287 287 286 287 288 287 288 288 289 288 288 289 289 289 288 286 284 283 283 283 282 282 280 280 278
273 275 277 279 282 284 286 286 286 286 286 285 286 286 285 285 286 288 288 286 286 286 286 286 286 286 285 285 285 285 285 285 285 284 283 282 281 280 280 280 279 278 276
270 272 274 276 278 282 284 285 288 288 289 289 290 288 286 289 289 289 289 289 289 289 286 285 284 284 284 284 284 284 284 283 283 282 282 281 280 279 278 278 279 278 276
267 269 270 273 276 279 283 284 283 286 288 288 288 289 289 289 289 288 288 287 288 287 284 283 282 282 281 281 281 281 280 281 282 281 280 280 279 278 278 277 277 276 275
264 267 268 270 274 279 283 284 284 282 281 280 282 284 285 285 285 285 286 284 280 279 279 280 279 280 280 280 280 279 279 280 280 280 279 279 279 278 276 275 275 274 273
264 266 268 270 273 278 282 283 281 280 278 277 277 279 278 280 280 281 280 277 275 274 275 275 276 276 276 276 276 276 276 276 276 276 277 277 277 276 274 274 272 271 269
264 267 268 271 275 278 280 279 278 277 275 275 275 275 276 275 273 272 272 273 272 272 272 272 272 273 273 273 274 274 273 272 272 272 271 271 272 272 270 269 269 267 266
265 267 269 271 274 276 275 274 274 273 274 274 274 276 275 270 268 268 268 268 269 269 269 269 270 270 270 271 271 270 269 268 268 268 267 267 267 266 265 266 264 264 264
265 267 270 270 270 269 269 270 270 271 269 269 270 272 272 268 267 266 266 266 266 266 267 267 266 266 266 267 268 268 267 265 264 264 264 264 264 263 263 263 262 261 260
268 268 267 266 266 267 266 267 268 269 268 268 268 268 267 267 266 265 264 265 265 265 265 265 265 264 264 265 265 266 265 264 264 265 263 263 262 262 262 261 260 259 258
265 266 265 265 264 264 266 267 268 268 267 267 266 265 265 264 264 263 263 264 264 264 264 263 263 263 263 263 263 263 263 263 264 264 264 263 261 261 260 260 259 258 258
262 262 263 263 263 265 266 266 266 265 265 265 264 264 264 264 263 263 263 263 263 263 262 263 263 262 262 262 262 263 264 262 262 263 262 262 260 260 259 259 257 257 255
262 264 262 263 264 265 265 264 264 264 264 264 264 264 263 263 263 263 263 263 262 262 262 262 262 262 261 261 262 263 264 263 261 261 261 261 260 258 258 257 256 255 254
Wind_Speed
6 6 7 7 7 7 6 8 9 10 12 13 14 12 12 14 16 17 19 20 21 21 21 21 22 21 15 14 14 14 15 14 17 14 7 9 9 12 8 11 10 11 9
6 6 7 7 8 7 7 8 8 10 12 12 13 13 13 15 15 17 20 20 22 23 22 22 24 17 22 20 15 18 17 16 15 20 11 6 10 8 8 11 9 7 8
5 6 7 8 7 8 8 9 10 9 10 11 12 14 15 14 15 16 19 20 23 25 24 24 23 22 23 17 18 16 15 15 16 14 13 4 3 4 2 2 3 4 4
6 6 7 8 8 8 10 11 10 11 12 13 12 13 14 16 16 18 19 21 22 23 25 25 25 24 24 22 21 20 17 16 17 15 14 5 5 4 3 6 5 3 4
4 5 6 7 7 8 9 8 9 10 11 12 14 15 17 16 14 19 19 21 22 24 24 24 25 25 28 26 17 20 20 18 15 16 15 5 6 4 12 5 9 4 2
5 6 7 8 8 8 9 9 10 11 11 13 14 16 18 15 22 23 21 21 23 23 23 24 23 23 22 27 30 31 26 22 21 15 15 15 18 14 6 9 8 4 5
8 9 10 10 11 10 10 10 11 13 13 14 15 15 18 19 24 25 25 19 22 23 25 23 21 18 21 22 28 32 35 33 34 22 20 17 18 16 14 11 9 6 6
8 9 10 11 13 12 13 14 14 13 15 14 15 16 18 18 25 26 26 20 20 25 25 25 24 25 23 20 21 22 26 26 28 22 23 22 18 17 19 16 12 8 7
7 8 9 9 11 12 14 14 14 15 16 15 15 17 17 21 25 27 24 19 19 22 22 22 23 24 24 20 19 23 24 23 25 33 32 23 15 23 18 14 10 12 4
7 8 9 10 12 13 14 14 12 12 15 13 16 16 19 21 24 26 23 14 18 15 16 18 21 22 25 21 21 22 24 21 12 7 5 12 16 16 20 15 15 14 7
6 7 8 9 13 14 14 11 12 13 14 15 17 16 17 17 20 26 27 17 14 14 14 13 13 20 23 24 23 19 18 11 11 11 9 10 10 12 10 9 7 8 8
7 8 10 10 11 11 12 11 10 11 14 15 16 15 12 14 18 19 21 23 24 17 16 14 14 17 19 23 20 26 22 19 12 10 12 13 13 7 9 10 13 11 9
9 11 12 11 12 11 11 11 8 9 10 11 12 12 12 12 10 16 20 22 20 15 13 15 8 11 13 11 13 22 20 11 10 13 12 12 11 13 12 15 16 17 17
10 11 11 12 12 11 8 7 7 7 8 10 10 10 11 11 9 7 7 9 13 9 9 7 9 14 17 14 12 12 10 11 11 10 13 11 11 10 10 10 14 12 13
8 8 10 10 12 11 10 9 7 7 7 9 10 8 9 10 8 10 7 4 5 7 5 4 5 7 9 8 7 9 10 11 11 12 13 12 12 10 9 9 10 8 10
8 7 6 8 11 9 10 9 12 14 10 11 14 9 5 8 7 7 8 11 12 9 4 5 7 7 8 8 10 10 10 13 11 12 11 11 11 11 10 8 8 10 12
8 8 8 8 9 10 9 8 10 6 9 8 13 9 6 6 9 10 11 15 18 11 7 7 7 9 9 10 10 10 11 10 11 11 11 10 10 10 11 9 8 10 10
9 11 8 8 9 10 9 9 8 6 4 2 5 11 12 13 13 13 9 8 6 9 7 7 7 7 8 9 9 10 9 9 9 10 10 9 9 9 10 9 8 10 10
9 8 8 9 9 12 10 8 7 4 4 2 2 3 7 9 12 16 16 6 5 6 6 7 7 7 8 9 9 9 9 9 9 9 8 7 7 8 9 8 9 11 10
7 14 12 9 9 10 8 7 5 3 2 2 1 2 3 4 4 5 6 5 6 6 6 7 7 7 8 8 8 8 9 9 8 8 7 7 6 6 8 8 7 8 7
6 9 12 8 9 9 6 4 2 2 2 1 2 4 8 4 5 5 6 7 6 6 7 7 7 7 7 7 8 8 8 7 7 6 6 6 6 7 6 7 7 7 8
7 8 8 8 6 3 3 1 1 2 2 2 3 5 11 5 6 6 7 7 6 6 6 6 7 7 7 7 6 7 7 6 5 5 6 6 6 6 6 7 7 6 6
7 8 6 3 3 1 1 2 1 3 4 3 3 4 5 5 5 6 6 6 5 6 6 7 7 7 7 7 6 5 6 5 4 4 6 6 6 6 6 7 7 6 5
5 5 2 3 1 1 2 2 3 5 5 5 5 5 6 6 6 7 7 7 7 7 6 7 7 8 7 7 6 6 6 4 4 5 7 7 7 6 7 7 6 6 6
3 2 2 2 2 2 4 5 6 7 7 6 6 6 6 6 7 7 6 6 6 6 7 6 5 8 9 10 9 8 8 8 6 6 5 7 8 8 6 6 5 5 4
4 4 4 3 4 5 6 6 8 7 6 6 6 6 6 6 6 6 5 5 5 5 5 5 6 8 8 7 7 8 9 9 7 8 5 6 6 5 5 6 7 4 5
Wind_Direction
325 314 315 299 284 277 266 264 262 269 266 263 261 250 240 238 239 240 242 242 241 240 237 235 233 227 233 237 231 227 227 227 240 242 224 201 192 209 207 211 206 202 210
311 312 306 300 306 299 288 278 271 265 270 264 263 259 260 259 251 246 245 244 246 248 247 243 241 235 234 229 231 229 225 221 226 238 213 191 195 214 214 206 204 199 207
328 323 314 306 301 297 294 297 298 285 276 273 267 266 266 260 260 259 258 252 248 248 248 248 245 241 241 232 228 227 228 222 224 227 226 174 169 147 151 169 198 180 198
315 309 300 296 294 298 303 302 301 301 297 294 287 282 276 273 268 266 262 261 258 252 249 246 244 241 238 238 233 224 226 223 218 220 220 183 177 151 162 193 216 192 162
275 277 273 279 283 288 287 287 288 287 285 284 285 281 278 274 271 270 265 262 259 258 254 249 247 243 237 233 227 230 221 224 220 211 215 175 163 162 191 173 208 173 193
324 308 307 307 309 303 298 297 297 294 293 292 290 289 286 279 277 272 266 269 267 265 261 253 247 240 234 225 221 227 221 220 221 210 209 209 197 197 155 181 177 139 203
328 323 322 322 320 316 311 309 305 300 295 287 284 282 280 278 278 279 278 272 269 263 260 258 252 244 234 236 229 230 228 222 220 212 210 207 200 193 170 170 176 172 193
316 316 317 317 314 315 313 311 306 302 299 294 289 286 283 282 281 275 270 271 271 264 258 256 253 250 242 228 232 227 231 230 226 221 213 209 205 185 181 184 175 118 81
297 295 294 294 298 301 300 298 296 297 300 292 289 289 283 284 286 282 281 277 271 269 262 259 256 254 248 219 223 238 233 228 227 222 214 205 182 164 151 131 145 143 128
250 261 272 279 281 286 283 287 288 285 286 288 286 283 282 284 288 284 278 274 272 267 262 258 248 249 252 228 224 230 238 231 198 128 139 114 131 142 161 168 154 156 130
248 260 269 269 283 280 277 278 283 288 290 291 290 289 287 284 288 287 282 276 271 269 263 257 245 237 237 238 223 235 235 164 142 120 112 101 100 122 102 90 89 135 119
296 292 284 282 292 290 279 282 283 288 293 292 295 294 296 298 292 290 294 292 274 270 266 262 252 226 232 232 223 229 150 142 141 134 134 122 96 74 85 89 86 84 71
307 298 293 291 290 287 276 280 287 289 291 293 297 300 307 307 304 298 304 309 297 278 265 268 237 224 212 222 176 144 136 131 135 131 130 109 117 111 102 90 84 83 73
289 287 293 293 295 291 280 277 275 283 291 295 296 300 305 307 305 309 315 321 330 350 9 7 71 84 78 85 108 129 130 125 124 121 104 102 95 104 112 115 111 106 90
276 284 290 292 291 295 280 274 270 261 270 291 293 292 303 306 310 311 345 334 341 344 336 16 56 74 86 87 89 86 95 104 107 109 104 109 100 103 97 109 103 93 103
293 290 292 298 294 288 284 284 259 253 298 313 302 294 288 305 344 33 29 24 16 12 8 50 57 61 67 73 76 85 81 83 95 102 101 103 111 116 112 99 98 107 115
287 291 287 282 283 286 281 283 287 269 267 312 352 359 5 26 27 41 47 49 37 41 43 38 60 61 62 59 70 75 80 80 96 98 104 109 112 107 111 112 110 111 112
281 279 278 277 277 279 279 280 274 270 278 291 353 20 35 35 31 21 11 41 25 21 27 50 50 54 65 76 80 85 85 85 86 93 94 101 110 116 119 117 116 119 116
290 287 280 281 281 279 280 277 264 247 242 254 323 330 359 355 34 42 42 42 58 49 42 49 47 51 58 66 67 67 72 75 78 87 91 100 102 114 113 111 111 114 117
276 274 271 280 282 278 276 261 248 233 241 254 298 303 335 341 37 34 35 39 50 54 53 58 52 56 57 63 71 71 74 70 72 73 76 81 85 96 103 105 106 114 113
287 283 279 281 278 276 262 245 208 170 153 77 33 48 75 85 67 50 46 32 39 43 51 58 56 55 52 58 64 68 68 67 69 76 82 79 85 93 87 92 102 104 109
277 273 279 286 278 257 257 224 141 130 101 93 63 63 87 72 75 70 60 51 38 36 38 59 61 54 51 53 64 77 81 83 76 83 87 86 94 98 100 103 105 103 104
276 273 279 276 266 238 48 46 41 98 92 78 73 72 64 70 64 69 73 62 51 49 37 54 66 64 53 53 49 61 92 90 91 110 113 107 108 107 107 106 111 103 95
273 284 258 260 265 68 64 73 83 72 73 63 61 61 65 63 64 60 56 57 55 46 40 48 51 67 68 65 62 63 71 73 84 93 110 117 112 105 100 99 102 103 109
18 14 22 22 22 37 77 77 73 66 66 66 66 66 70 70 70 62 59 57 61 61 53 50 55 65 69 76 76 76 86 85 80 93 89 96 102 100 99 103 110 102 97
30 31 36 29 59 65 71 74 71 71 69 64 66 64 66 70 68 70 65 66 68 67 65 57 67 77 77 80 89 98 98 95 84 83 84 97 107 107 109 111 113 105 116